Flag Weather past 2 weeks in Cheltenham, England, United Kingdom

Now
43 °F

Quite cool.


Feels Like: 42 °F
Forecast: 38 / 46 °F
Wind: 3 mph from North

Location: Little Rissington

Current Time: Nov 27, 2014 at 2:21:42 AM

Latest Report: Nov 27, 2014 at 1:00 AM


Visibility: 1 mi

Pressure: 29.71 "Hg

Humidity: 100%

Dew point: 43 °F

Location of CheltenhamLocation

Historic Weather in Cheltenham — Graph

°F

Cheltenham temperature yesterday

Maximum temperature yesterday: 44 °F (at 1:00 PM)
Minimum temperature yesterday: 41 °F (at 12:00 AM)
Average temperature yesterday: 43 °F

Past Weeks' High & Low Weather Summary

 TemperatureHumidityPressure
High56 °F (Nov 22, 2:00 PM)100% (Nov 12, 1:00 AM)30.35 "Hg (Nov 12, 1:00 AM)
Low32 °F (Nov 24, 11:00 PM)72% (Nov 14, 2:00 PM)29.23 "Hg (Nov 12, 1:00 AM)
Average45 °F97%29.84 "Hg
* Reported Nov 12 1:00 AM — Nov 27 1:00 AM, Cheltenham, Weather by CustomWeather, © 2014

Note: Actual official high and low records may vary slightly from our data, if they occured in-between our weather recording intervals... More about our weather records

Advertising

Cheltenham weather history for previous 24 hours

 ConditionsComfort  
Time TempWeatherWind HumidityBarometerVisibility
1:00 AM
Nov 27
43 °FQuite cool.3 mph100%29.71 "Hg1 mi
12:00 AM44 °FQuite cool.5 mph100%29.73 "Hg0 mi
11:00 PM
Nov 26
44 °FQuite cool.3 mph100%29.75 "Hg0 mi
10:00 PM44 °FQuite cool.2 mph100%29.77 "Hg0 mi
9:00 PM44 °FQuite cool.3 mph100%29.78 "Hg0 mi
8:00 PM44 °FQuite cool.3 mph100%29.79 "Hg0 mi
7:00 PM44 °FQuite cool.5 mph100%29.80 "Hg0 mi
6:00 PM44 °FQuite cool.5 mph100%29.80 "Hg0 mi
5:00 PM44 °FQuite cool.6 mph100%29.81 "Hg0 mi
4:00 PM44 °FQuite cool.5 mph100%29.82 "Hg0 mi
3:00 PM44 °FQuite cool.3 mph100%29.83 "Hg3 mi
2:00 PM44 °FQuite cool.3 mph100%29.83 "Hg0 mi
1:00 PM44 °FQuite cool.3 mph100%29.85 "Hg0 mi
12:00 PM44 °FQuite cool.7 mph100%29.86 "Hg0 mi
11:00 AM44 °FQuite cool.6 mph100%29.88 "Hg1 mi
10:00 AM43 °FQuite cool.6 mph100%29.89 "Hg0 mi
9:00 AM43 °FQuite cool.6 mph100%29.90 "Hg0 mi
8:00 AM42 °FQuite cool.7 mph100%29.90 "Hg0 mi
7:00 AM42 °FQuite cool.6 mph100%29.90 "Hg0 mi
6:00 AM42 °FQuite cool.6 mph100%29.91 "Hg1 mi
5:00 AM42 °FQuite cool.6 mph100%29.91 "Hg0 mi
4:00 AM42 °FQuite cool.7 mph100%29.92 "Hg0 mi
3:00 AM42 °FQuite cool.7 mph100%29.94 "Hg0 mi
2:00 AM42 °FQuite cool.9 mph100%29.96 "Hg1 mi
Weather by CustomWeather, © 2014

See weather overviewHow to use our weather pages